Zurück zum Katalog

NOAA 17 DEB

AktivPO
NORAD 48713·DEBRIS·🇺🇸 United States

Gestartet Jun 24, 2002 von Vandenberg Space Force Base

Loading…

Nächste Überflüge (nächste 24 Stunden)

TLE

AktuellSource: Space-Track

Epoche: Sep 14, 2026, 09:21 UTC

1 48713U 02032AW  26257.39011350  .00060904  00000-0  25947-2 0  9992
2 48713  98.9816  53.3822 0024321 356.6453   3.4612 15.22461508293580

Verfolge NOAA 17 DEB in Echtzeit mit AllMySat

Download on the App Store